Dewpoint
-5 -5 -14 -15 -17 -15 -20 -20 -17 -16 -11 -4 2 2 1 -0 -1 -2 -2 -1 -0 -0 2 3 2 1 1
-9 -4 -5 -14 -16 -17 -17 -20 -20 -19 -15 -8 -1 1 1 0 1 -1 -2 -2 -4 -5 -6 -6 -6 -8 -7
-14 -6 -4 -11 -16 -18 -16 -6 -10 -13 -16 -15 -10 -4 0 0 1 1 -0 -1 -1 -3 -5 -6 -6 -6 -7
-12 -11 -5 -9 -8 -8 -8 -3 -3 -8 -7 -6 -6 -4 1 2 2 1 1 -0 -0 -1 -3 -4 -6 -7 -7
-10 -8 -7 -6 -8 -7 -4 -5 -10 -8 -8 -9 -6 -3 0 1 -1 0 1 1 -0 -1 -2 -2 -4 -5 -3
-5 -4 -9 -6 -11 -6 -5 -4 -4 -3 -4 -6 -7 -4 -1 1 0 -1 0 1 -1 -2 -2 -3 -3 -5 -3
-7 -10 -6 -8 -9 -11 -6 -6 -4 -4 -5 -4 -7 -7 -7 -4 -2 -1 -2 -1 -1 -2 -3 -3 -3 -4 -1
-13 -13 -11 -10 -8 -11 -9 -5 -6 -7 -7 -6 -11 -9 -7 -5 -4 -4 -4 -2 -3 -3 -4 -3 -3 -3 2
-13 -15 -13 -11 -9 -12 -9 -6 -4 -5 -7 -10 -10 -5 -8 -9 -7 -6 -4 -3 -3 -2 -2 -1 -0 0 3
-10 -11 -12 -12 -9 -12 -10 -6 -5 -6 -7 -5 -6 -8 -8 -10 -5 -1 -1 -1 -1 -1 0 1 1 2 3
-8 -9 -9 -10 -10 -13 -13 -10 -7 -6 -8 -9 -12 -14 -7 -14 -16 -6 -2 -1 -1 -0 -0 -1 1 1 2
-8 -7 -8 -8 -9 -12 -14 -10 -7 -7 -10 -11 -14 -16 -10 -7 -15 -16 -6 -2 -1 -1 -1 -0 -1 1 2
-7 -9 -10 -9 -8 -7 -10 -10 -10 -10 -13 -12 -13 -15 -12 -10 -8 -14 -10 -6 -3 -2 -2 -1 -1 -1 1
-8 -9 -10 -10 -8 -7 -7 -7 -8 -10 -13 -12 -13 -15 -12 -9 -7 -7 -6 -6 -5 -2 -2 -1 -1 -1 1
-8 -9 -10 -9 -10 -8 -7 -7 -8 -8 -10 -11 -13 -13 -8 -7 -7 -12 -7 -7 -5 -3 -2 -2 -1 -1 0
-9 -9 -9 -9 -8 -7 -6 -7 -7 -8 -9 -10 -8 -8 -6 -7 -8 -10 -11 -4 -6 -4 -2 -2 -2 -2 -1
-8 -8 -9 -8 -7 -6 -7 -8 -8 -8 -9 -8 -8 -8 -7 -6 -9 -10 -7 -4 -5 -4 -3 -2 -2 -2 -1
Wind_Speed
29 26 36 36 39 32 28 26 25 24 25 26 26 26 25 23 22 23 27 30 30 30 33 33 33 33 32
38 28 29 33 35 37 30 25 26 26 26 27 29 29 28 27 23 22 23 24 25 27 29 30 31 31 34
41 33 29 32 30 31 30 19 19 23 25 27 28 29 28 27 25 22 22 23 23 25 25 27 28 27 28
36 38 28 29 24 25 25 19 18 19 22 25 25 26 26 23 22 21 20 20 20 20 22 24 25 26 27
34 33 31 26 25 20 19 24 26 23 21 21 22 23 25 25 26 26 24 23 22 23 23 23 23 23 24
29 28 35 26 25 20 17 16 16 11 12 19 20 22 22 23 21 27 29 28 26 25 24 24 23 23 23
34 36 33 32 26 24 18 16 16 17 18 20 21 23 23 27 32 27 29 30 29 28 27 25 25 23 22
34 37 36 33 29 26 23 19 20 22 20 23 23 24 20 19 17 23 29 27 28 28 28 27 26 23 21
30 30 32 30 27 24 25 21 19 21 20 21 18 16 19 22 20 21 19 24 22 21 22 23 22 20 20
27 24 27 27 25 24 24 23 20 22 14 8 14 19 17 19 13 9 12 13 15 16 15 15 19 19 21
26 23 23 24 25 23 23 23 23 24 21 20 24 23 16 23 24 21 19 15 12 14 13 12 15 20 23
26 26 25 25 25 22 21 21 21 22 23 22 27 26 21 21 25 24 22 18 17 20 17 17 16 15 19
27 26 27 24 25 23 23 23 24 24 28 26 26 26 26 28 26 27 24 26 21 22 20 18 16 17 15
28 28 26 25 24 25 25 25 26 30 29 28 27 27 28 28 26 30 25 26 27 14 16 16 17 17 16
30 30 29 27 27 26 26 27 30 31 30 27 25 21 24 22 24 29 30 28 28 26 24 24 20 18 19
27 28 29 30 29 27 30 32 31 29 27 25 22 17 21 27 28 31 30 28 26 27 25 27 21 18 19
25 25 25 27 28 28 28 22 20 22 23 23 21 19 23 24 28 25 22 20 26 27 26 26 23 19 17
Wind_Direction
283 282 284 283 288 288 281 275 270 266 262 263 264 263 263 263 263 259 255 255 257 257 256 258 256 253 253
292 285 285 288 284 286 288 272 266 264 261 257 257 263 265 264 262 263 260 257 257 258 255 257 259 250 251
289 288 285 292 284 279 280 277 256 257 257 258 257 256 259 260 260 262 262 258 261 262 258 255 257 255 249
284 287 284 289 281 276 277 273 263 255 254 256 254 250 250 247 247 256 265 262 262 263 264 262 256 255 255
280 281 279 280 278 279 275 276 276 267 261 263 261 253 244 241 242 247 251 256 262 265 267 270 264 257 257
270 268 276 274 282 281 280 282 286 280 262 260 261 256 246 241 237 243 247 254 263 268 268 270 271 262 257
267 270 271 275 284 284 273 268 268 273 283 285 279 269 264 256 248 250 250 255 263 268 270 271 268 259 253
262 268 271 276 277 278 275 266 269 273 281 284 287 281 273 263 262 259 254 257 262 265 268 269 265 256 241
269 265 263 267 266 270 262 258 261 275 282 287 292 291 280 270 270 268 264 257 261 263 267 263 262 254 241
279 266 261 258 258 258 261 260 260 276 288 253 276 298 307 291 271 273 262 249 255 258 253 261 262 253 237
279 271 259 254 251 256 259 258 256 259 268 281 287 291 278 287 280 270 277 262 272 281 273 278 264 247 239
273 272 267 256 248 257 262 259 257 262 274 274 280 285 277 279 281 278 273 288 277 275 266 276 271 267 245
269 269 270 269 255 249 254 256 263 271 273 273 272 274 272 272 277 282 275 267 282 283 263 272 268 264 263
268 270 272 269 264 254 257 257 267 274 273 271 269 261 262 264 268 278 274 269 265 277 269 270 256 258 257
268 271 272 269 262 259 257 262 269 273 275 274 276 253 248 261 270 267 265 263 259 266 266 267 256 256 247
267 267 266 265 260 259 263 265 267 265 264 268 277 257 251 259 259 271 269 257 262 260 257 262 262 252 243
268 267 269 260 257 258 259 264 261 259 265 266 265 257 252 256 265 270 263 257 259 259 247 256 258 254 244
Height
1458 1457 1457 1455 1452 1450 1452 1451 1448 1449 1449 1449 1448 1449 1450 1451 1451 1450 1452 1452 1453 1454 1456 1455 1458 1457 1457
1449 1448 1447 1449 1445 1442 1440 1441 1440 1440 1440 1440 1440 1440 1441 1442 1443 1443 1444 1443 1442 1445 1446 1446 1451 1450 1450
1440 1441 1438 1439 1437 1434 1432 1430 1431 1431 1431 1431 1431 1432 1433 1433 1434 1436 1436 1436 1436 1437 1437 1439 1442 1440 1441
1436 1432 1431 1430 1429 1427 1424 1423 1422 1422 1422 1422 1423 1424 1425 1426 1427 1428 1429 1429 1428 1428 1428 1430 1431 1431 1431
1428 1425 1423 1422 1422 1421 1419 1416 1414 1414 1415 1415 1415 1415 1416 1417 1419 1421 1422 1422 1422 1422 1422 1421 1421 1421 1422
1419 1417 1414 1415 1415 1414 1413 1411 1409 1409 1408 1407 1408 1407 1408 1408 1409 1411 1413 1414 1413 1413 1412 1411 1410 1410 1412
1409 1407 1407 1408 1409 1407 1407 1406 1404 1404 1403 1400 1400 1399 1399 1399 1400 1401 1402 1403 1403 1403 1403 1403 1403 1404 1405
1401 1398 1399 1400 1401 1401 1400 1400 1399 1397 1398 1394 1393 1392 1392 1391 1391 1391 1392 1393 1394 1394 1394 1395 1396 1397 1399
1392 1391 1391 1391 1393 1393 1392 1393 1393 1392 1392 1390 1388 1385 1384 1383 1384 1384 1383 1385 1386 1386 1387 1387 1388 1390 1392
1383 1382 1382 1383 1385 1385 1385 1386 1387 1386 1385 1385 1384 1384 1380 1378 1377 1377 1379 1379 1381 1382 1382 1383 1383 1384 1385
1374 1375 1374 1375 1376 1378 1378 1379 1380 1380 1381 1381 1378 1378 1378 1375 1372 1373 1372 1373 1373 1375 1377 1378 1378 1378 1379
1367 1366 1367 1367 1369 1370 1372 1372 1373 1374 1375 1375 1372 1372 1370 1369 1367 1367 1368 1368 1368 1370 1371 1372 1372 1372 1371
1358 1358 1359 1360 1361 1363 1364 1365 1366 1367 1367 1368 1367 1366 1364 1362 1362 1360 1362 1362 1364 1364 1365 1366 1366 1366 1367
1350 1350 1351 1352 1353 1355 1356 1358 1358 1357 1359 1359 1359 1358 1357 1357 1356 1355 1356 1357 1358 1357 1360 1360 1361 1361 1362
1342 1342 1342 1343 1344 1346 1348 1349 1348 1348 1348 1349 1349 1350 1350 1350 1349 1347 1347 1349 1351 1353 1355 1354 1354 1356 1356
1333 1333 1333 1333 1335 1337 1338 1338 1339 1339 1339 1341 1342 1343 1343 1341 1342 1339 1339 1341 1343 1346 1347 1347 1348 1350 1351
1324 1324 1325 1325 1327 1328 1329 1330 1330 1331 1332 1333 1334 1335 1335 1333 1332 1333 1333 1334 1337 1338 1339 1340 1342 1343 1344